Flag for Guyana Weather past 2 weeks in Linden, Guyana

Now
81 °F

Thunderstorms. Broken clouds.


Feels Like: 87 °F
Forecast: 72 / 84 °F
Wind: 5 mph from West

Location: Georgetown/Cheddi Jagan International Airport

Current Time: May 22, 2015 at 3:32:09 PM

Latest Report: May 22, 2015 at 3:00 PM


Visibility: 6 mi

Pressure: 29.89 "Hg

Humidity: 89%

Dew point: 77 °F

Location of LindenLocation

Historic Weather in Linden — Graph

°F

Linden temperature yesterday

Maximum temperature yesterday: 84 °F (at 12:00 PM)
Minimum temperature yesterday: 75 °F (at 1:00 AM)
Average temperature yesterday: 79 °F

Past Weeks' High & Low Weather Summary

 TemperatureHumidityPressure
High91 °F (May 9, 1:00 PM)100% (May 8, 2:00 AM)30.01 "Hg (May 8, 2:00 AM)
Low70 °F (May 9, 6:00 AM)49% (May 8, 12:00 PM)29.83 "Hg (May 12, 3:00 PM)
Average78 °F89%29.93 "Hg
* Reported May 7 2:00 PM — May 22 2:00 PM, Linden, Weather by CustomWeather, © 2015

Note: Actual official high and low records may vary slightly from our data, if they occured in-between our weather recording intervals... More about our weather records

Advertising

Linden weather history for previous 24 hours

 ConditionsComfort  
Time TempWeatherWind HumidityBarometerVisibility
2:00 PM
Fri, May 22
81 °FThunderstorms. Partly sunny.No wind89%29.92 "Hg6 mi
1:00 PM79 °FThunderstorms. Partly sunny.7 mph94%29.95 "Hg5 mi
12:00 PM84 °FPartly sunny.7 mph74%29.95 "HgN/A
11:00 AM79 °FLight rain. Partly sunny.18 mph94%29.98 "Hg4 mi
10:00 AM82 °FSprinkles. Partly sunny.12 mph84%29.98 "HgN/A
8:00 AM81 °FPartly sunny.7 mph84%30.01 "HgN/A
7:00 AM79 °FScattered clouds.No wind89%29.98 "HgN/A
5:00 AM73 °FPassing clouds.No wind100%29.95 "HgN/A
4:00 AM73 °FPassing clouds.No wind100%29.95 "HgN/A
1:00 AM75 °FPassing clouds.No wind100%29.95 "HgN/A
12:00 AM77 °FPassing clouds.No wind94%29.95 "HgN/A
11:00 PM
Thu, May 21
77 °FPassing clouds.No wind94%29.98 "HgN/A
10:00 PM75 °FPassing clouds.No wind100%29.98 "HgN/A
9:00 PM75 °FPassing clouds.5 mph100%29.95 "HgN/A
8:00 PM75 °FPartly cloudy.5 mph100%29.92 "HgN/A
7:00 PM77 °FPassing clouds.5 mph94%29.89 "HgN/A
6:00 PM79 °FScattered clouds.7 mph89%29.89 "HgN/A
5:00 PM79 °FPartly sunny.14 mph89%29.86 "HgN/A
4:00 PM81 °FPartly sunny.9 mph84%29.86 "HgN/A
3:00 PM81 °FThunderstorms. Broken clouds.14 mph89%29.86 "Hg6 mi
Weather by CustomWeather, © 2015

See weather overviewHow to use our weather pages